FW5260 Weather Reports


time (UTC)temp
C
wind
direction
speed
KPH
gust
KPH
rain 1hr
cm
rain 24hr
cm
rain mn
cm
humidity
%
barometer
mb
20260505041310 12 290 3.2 6.4 0.03 0.03 0.03 87 1011.8
20260505035809 12 253 1.6 6.4 0.00 0.00 0.00 82 1011.6
20260505034809 13 287 3.2 4.8 0.00 0.00 0.00 77 1011.5
20260505034529 13 243 3.2 6.4 0.00 0.00 0.00 74 1011.5
20260505033808 13 228 3.2 6.4 0.00 0.00 0.00 72 1011.5
20260505033313 13 226 3.2 4.8 0.00 0.00 0.00 75 1011.5
20260505032029 13 354 0.0 3.2 0.00 0.00 0.00 80 1011.7
20260505031524 13 219 1.6 4.8 0.00 0.00 0.00 82 1011.5
20260505031024 13 228 0.0 4.8 0.00 0.00 0.00 80 1011.5
20260505030531 13 320 3.2 4.8 0.00 0.00 0.00 80 1011.6
20260505030020 13 124 0.0 4.8 0.00 0.00 0.00 79 1011.4
20260505024300 13 147 0.0 6.4 0.00 0.00 0.00 76 1011.9
20260505023300 13 278 3.2 4.8 0.00 0.00 0.00 78 1011.9
20260505023021 13 351 0.0 4.8 0.00 0.00 0.00 79 1012.3
20260505022304 13 301 1.6 3.2 0.00 0.00 0.00 82 1012.4
20260505022027 14 262 1.6 3.2 0.00 0.00 0.00 81 1012.4
20260505021525 14 268 1.6 3.2 0.00 0.00 0.00 79 1012.3
20260505021019 14 283 1.6 3.2 0.00 0.00 0.00 79 1012.5
20260505020306 14 256 1.6 4.8 0.00 0.00 0.00 74 1012.5
20260505015759 14 314 0.0 4.8 0.00 0.00 0.00 73 1012.6
20260505015308 14 194 0.0 4.8 0.00 0.00 0.00 73 1012.4
20260505014758 14 345 0.0 4.8 0.00 0.00 0.00 73 1012.5
20260505014301 14 317 1.6 6.4 0.00 0.00 0.00 73 1012.3
20260505013758 14 320 3.2 6.4 0.00 0.00 0.00 73 1012.5
20260505013302 14 286 1.6 6.4 0.00 0.00 0.00 72 1012.3
20260505012758 14 253 1.6 4.8 0.00 0.00 0.00 72 1012.3
20260505012304 14 302 0.0 4.8 0.00 0.00 0.00 72 1012.7
20260505012017 14 241 3.2 4.8 0.00 0.00 0.00 71 1012.8
20260505011019 14 205 3.2 6.4 0.00 0.00 0.00 72 1013.0
20260505010307 14 236 3.2 8.0 0.00 0.00 0.00 70 1013.1
20260505005759 14 196 3.2 8.0 0.00 0.00 0.00 70 1013.1
20260505005308 14 263 3.2 6.4 0.00 0.00 0.00 71 1013.3
20260505004759 14 192 3.2 6.4 0.00 0.00 0.00 70 1013.2
20260505004528 14 224 3.2 6.4 0.00 0.00 0.00 69 1013.2
20260505003758 14 315 3.2 4.8 0.00 0.00 0.00 71 1013.4
20260505003521 14 203 0.0 4.8 0.00 0.00 0.00 70 1013.9
20260505002759 14 305 3.2 4.8 0.00 0.00 0.00 69 1013.6
20260505002535 14 257 3.2 4.8 0.00 0.00 0.00 69 1013.8
20260505001758 14 284 3.2 4.8 0.00 0.00 0.00 70 1013.8
20260505001305 14 273 3.2 3.2 0.00 0.00 0.00 70 1013.9
20260505001019 14 278 1.6 3.2 0.00 0.00 0.00 70 1013.9
20260505000304 15 278 3.2 3.2 0.00 0.00 0.00 67 1014.0
20260504235758 15 252 0.0 3.2 0.00 0.00 0.00 68 1014.2
20260504235305 15 233 3.2 4.8 0.00 0.00 0.00 68 1014.1
20260504235020 15 191 0.0 6.4 0.00 0.00 0.00 67 1013.9
20260504234526 15 160 0.0 9.7 0.00 0.00 0.00 67 1014.1
20260504233524 15 260 3.2 8.0 0.00 0.00 0.00 67 1014.3
20260504232802 15 223 6.4 8.0 0.00 0.00 0.00 66 1014.3
20260504232017 15 276 4.8 6.4 0.00 0.00 0.00 65 1014.3
20260504231300 15 317 3.2 6.4 0.00 0.00 0.00 67 1014.2
20260504230759 15 272 1.6 6.4 0.00 0.00 0.00 66 1014.3
20260504230518 15 258 3.2 9.7 0.00 0.00 0.00 66 1014.4
20260504230017 15 233 6.4 9.7 0.00 0.00 0.00 66 1014.5
20260504225301 15 322 3.2 6.4 0.00 0.00 0.00 66 1014.5
20260504224759 15 279 3.2 6.4 0.00 0.00 0.00 65 1014.7
20260504223759 15 327 0.0 6.4 0.00 0.00 0.00 66 1014.6
20260504223300 15 228 4.8 6.4 0.00 0.00 0.00 66 1014.6
20260504222527 15 325 3.2 8.0 0.00 0.00 0.00 67 1014.8
20260504221759 15 269 3.2 8.0 0.00 0.00 0.00 65 1014.8
20260504221529 15 261 3.2 8.0 0.00 0.00 0.00 65 1014.8
20260504221030 15 328 3.2 8.0 0.00 0.00 0.00 65 1015.0
20260504220534 15 253 6.4 8.0 0.00 0.00 0.00 65 1015.2
20260504215759 15 328 3.2 8.0 0.00 0.00 0.00 66 1015.1
20260504215522 15 317 1.6 8.0 0.00 0.00 0.00 65 1015.2
20260504214802 15 323 1.6 6.4 0.00 0.00 0.00 65 1015.0
20260504214519 15 289 4.8 8.0 0.00 0.00 0.00 64 1015.2
20260504213759 15 285 3.2 9.7 0.00 0.00 0.00 64 1015.1
20260504212759 15 242 1.6 8.0 0.00 0.00 0.00 64 1015.4
20260504212300 15 316 6.4 8.0 0.00 0.00 0.00 62 1015.3
20260504211759 16 255 3.2 8.0 0.00 0.00 0.00 61 1015.3
20260504211525 16 267 3.2 8.0 0.00 0.00 0.00 61 1015.5
20260504210300 16 241 3.2 8.0 0.00 0.00 0.00 61 1015.6
20260504205533 16 226 0.0 6.4 0.00 0.00 0.00 61 1015.5
20260504205033 16 260 3.2 4.8 0.00 0.00 0.00 62 1015.6
20260504204301 16 224 3.2 4.8 0.00 0.00 0.00 62 1015.7
20260504203759 16 231 0.0 4.8 0.00 0.00 0.00 63 1015.4
20260504203301 16 206 4.8 6.4 0.00 0.00 0.00 62 1015.5
20260504203017 16 202 0.0 6.4 0.00 0.00 0.00 62 1015.7
20260504202301 16 235 3.2 6.4 0.00 0.00 0.00 61 1015.6
20260504201759 16 267 3.2 6.4 0.00 0.00 0.00 61 1015.4
20260504201300 16 153 0.0 6.4 0.00 0.00 0.00 60 1015.5
20260504200300 16 256 3.2 4.8 0.00 0.00 0.00 60 1015.4
20260504195300 16 276 3.2 4.8 0.00 0.00 0.00 61 1015.3
20260504194758 16 285 3.2 4.8 0.00 0.00 0.00 62 1015.2
20260504194301 16 236 4.8 4.8 0.00 0.00 0.00 64 1015.4
20260504193800 16 246 0.0 4.8 0.00 0.00 0.00 65 1015.3
20260504193303 16 324 3.2 4.8 0.00 0.00 0.00 59 1015.1
20260504192802 16 340 3.2 3.2 0.00 0.00 0.00 56 1015.1
20260504192304 17 296 0.0 3.2 0.00 0.00 0.00 55 1015.0
20260504191802 16 251 3.2 3.2 0.00 0.00 0.00 54 1015.1
20260504191300 17 256 0.0 3.2 0.00 0.00 0.00 54 1015.0
20260504190759 17 277 1.6 3.2 0.00 0.00 0.00 54 1015.0
20260504185521 17 315 0.0 3.2 0.00 0.00 0.00 55 1014.7
20260504184758 17 336 0.0 3.2 0.00 0.00 0.00 57 1014.8
20260504184301 17 245 0.0 3.2 0.00 0.00 0.00 55 1014.8
20260504184023 17 316 3.2 3.2 0.00 0.00 0.00 55 1014.8
20260504183301 17 347 0.0 3.2 0.00 0.00 0.00 55 1014.8
20260504182759 17 328 3.2 3.2 0.00 0.00 0.00 55 1014.8
20260504182525 17 269 0.0 4.8 0.00 0.00 0.00 56 1014.7
20260504181759 17 293 1.6 4.8 0.00 0.00 0.00 58 1014.7
20260504181304 17 304 1.6 4.8 0.00 0.00 0.00 58 1014.5
20260504180802 17 316 0.0 4.8 0.00 0.00 0.00 60 1014.6
20260504180300 17 325 0.0 3.2 0.00 0.00 0.00 60 1014.7
20260504175301 17 287 0.0 3.2 0.00 0.00 0.00 60 1014.7
20260504174759 17 328 3.2 3.2 0.00 0.00 0.00 59 1014.7
20260504174520 17 267 1.6 4.8 0.00 0.00 0.00 59 1014.6
20260504174021 17 287 1.6 4.8 0.00 0.00 0.00 60 1014.6
20260504173300 17 267 3.2 4.8 0.00 0.00 0.00 60 1014.8
20260504172759 18 308 1.6 3.2 0.00 0.00 0.00 58 1014.7
20260504172023 18 220 0.0 3.2 0.00 0.00 0.00 57 1014.7
20260504171519 18 255 0.0 3.2 0.00 0.00 0.00 55 1015.0
20260504171029 18 254 3.2 4.8 0.00 0.00 0.00 54 1014.8
20260504170300 18 254 1.6 4.8 0.00 0.00 0.00 56 1014.8
20260504150300 20 187 4.8 9.7 0.00 0.00 0.00 49 1015.3
20260504140758 20 189 3.2 6.4 0.00 0.00 0.00 49 1015.8
20260504140300 20 151 4.8 6.4 0.00 0.00 0.00 48 1015.9
20260504130759 20 160 6.4 14.5 0.00 0.00 0.00 47 1016.5
20260504130301 20 151 9.7 14.5 0.00 0.00 0.00 47 1016.6
20260504120301 20 173 4.8 11.3 0.00 0.00 0.00 49 1016.7
20260504100300 17 171 3.2 9.7 0.00 0.00 0.00 54 1017.4
20260504081802 16 152 3.2 4.8 0.00 0.00 0.00 69 1017.5
20260504081300 16 242 1.6 4.8 0.00 0.00 0.00 69 1017.3
20260504080758 16 108 0.0 8.0 0.00 0.00 0.00 73 1017.4
20260504080300 16 169 3.2 8.0 0.00 0.00 0.00 76 1017.2
20260504050301 13 162 1.6 6.4 0.00 0.00 0.00 75 1016.1
20260504045802 13 222 3.2 6.4 0.00 0.00 0.00 74 1015.9